GSAT0220 (PRN E13)

Last updated on Jan. 23, 2021, 7:31 a.m. UTC

1 43567U 18060D   21022.04006575 -.00000059  00000-0  00000-0 0  9999
2 43567  56.9417  35.0738 0005737 278.4569  81.5195  1.70476204 15554
UTC
Height (km)
Latitude
Longitude
Inclination
Orbital Period
UTC large
Height (km)
Speed (km/s)
/
Latitude / Longitude
Inclination (degrees)
Orbital Period (minutes)
Azimuth
Elevation
Range (km)
Doppler Factor
iOS Compass Heading
iOS Angle

Next 30 passes for location: Hong Kong

Rise time Rise Azimuth (degrees) Set time Set Azimuth (degrees) Duration Max altitude (degrees)

No matching passes for this satellites